Temp
-16 -16 -16 -16 -16 -17 -17 -17 -16 -16 -16 -15 -15 -15 -15 -15 -15 -15 -15 -15 -14 -14 -14 -13 -13 -12 -11 -10 -9 -8 -8 -7 -7 -7 -7 -7 -7 -7 -6 -6 -6 -6 -6
-16 -16 -16 -16 -16 -16 -16 -16 -16 -16 -16 -16 -16 -16 -15 -15 -15 -15 -15 -15 -15 -15 -15 -14 -14 -13 -12 -12 -11 -9 -8 -8 -7 -7 -7 -7 -7 -7 -7 -6 -6 -6 -6
-15 -15 -15 -15 -15 -15 -15 -15 -16 -16 -16 -16 -16 -16 -16 -16 -16 -16 -16 -16 -15 -15 -15 -15 -14 -13 -13 -12 -12 -11 -10 -8 -8 -7 -7 -7 -7 -7 -7 -7 -6 -6 -6
-15 -15 -15 -15 -15 -15 -15 -15 -16 -16 -16 -16 -16 -16 -16 -16 -16 -17 -17 -17 -16 -16 -16 -15 -15 -14 -13 -12 -12 -12 -11 -11 -9 -8 -7 -7 -7 -7 -7 -7 -7 -7 -7
-14 -15 -15 -15 -15 -15 -15 -15 -15 -15 -16 -16 -16 -16 -16 -16 -17 -17 -18 -19 -18 -17 -17 -16 -15 -15 -14 -13 -12 -12 -12 -11 -11 -9 -8 -7 -7 -7 -7 -7 -7 -7 -7
-14 -14 -15 -15 -15 -15 -15 -15 -15 -15 -15 -16 -16 -16 -16 -17 -17 -18 -19 -19 -19 -19 -18 -17 -17 -17 -17 -17 -15 -13 -12 -11 -11 -11 -9 -8 -7 -7 -7 -8 -8 -8 -8
-15 -15 -15 -15 -15 -15 -15 -16 -16 -16 -16 -17 -17 -18 -18 -18 -19 -19 -20 -20 -20 -20 -20 -20 -20 -20 -21 -21 -19 -18 -15 -13 -11 -11 -11 -9 -8 -8 -8 -8 -8 -8 -8
-15 -15 -15 -16 -16 -16 -16 -16 -17 -17 -17 -17 -18 -18 -18 -20 -21 -21 -21 -21 -21 -21 -21 -21 -21 -21 -22 -21 -21 -21 -19 -16 -13 -11 -11 -11 -9 -9 -9 -9 -8 -9 -9
-15 -15 -15 -16 -16 -16 -16 -16 -17 -17 -17 -18 -18 -19 -20 -21 -21 -23 -23 -23 -22 -22 -22 -22 -22 -22 -22 -22 -21 -21 -20 -18 -15 -12 -11 -11 -11 -11 -10 -11 -10 -9 -9
-15 -15 -15 -16 -16 -16 -16 -16 -17 -17 -18 -19 -20 -21 -22 -23 -23 -23 -25 -24 -23 -23 -23 -23 -23 -23 -24 -23 -23 -22 -21 -19 -17 -15 -13 -12 -12 -13 -13 -13 -12 -11 -10
-15 -15 -16 -16 -16 -16 -16 -17 -17 -18 -18 -20 -22 -23 -24 -25 -25 -25 -25 -24 -23 -24 -24 -24 -24 -25 -25 -25 -25 -24 -23 -21 -19 -19 -17 -15 -15 -14 -14 -14 -14 -13 -12
-15 -15 -16 -16 -16 -16 -16 -17 -17 -18 -19 -21 -23 -25 -25 -25 -25 -25 -25 -24 -24 -24 -24 -24 -25 -25 -25 -26 -25 -23 -22 -22 -22 -20 -21 -18 -18 -17 -16 -15 -15 -14 -14
-15 -15 -16 -16 -16 -16 -16 -17 -17 -18 -20 -22 -24 -26 -26 -26 -25 -25 -25 -25 -24 -24 -25 -25 -25 -26 -26 -25 -24 -24 -23 -22 -21 -22 -22 -21 -19 -16 -17 -17 -15 -15 -16
-15 -15 -16 -16 -16 -16 -16 -17 -17 -18 -19 -21 -23 -25 -25 -25 -25 -25 -24 -24 -24 -24 -25 -25 -26 -26 -26 -25 -25 -24 -23 -22 -22 -22 -22 -20 -18 -19 -18 -18 -17 -17 -16
-15 -15 -16 -16 -16 -16 -16 -16 -17 -17 -18 -20 -21 -22 -23 -24 -24 -24 -24 -24 -24 -24 -25 -25 -25 -26 -26 -25 -25 -24 -23 -23 -23 -22 -22 -22 -20 -20 -19 -18 -17 -17 -17
-15 -15 -15 -16 -16 -16 -16 -16 -16 -17 -17 -19 -18 -20 -21 -22 -23 -23 -23 -23 -23 -24 -25 -25 -25 -25 -25 -26 -26 -24 -23 -24 -24 -23 -22 -22 -21 -21 -20 -19 -19 -18 -17
-15 -15 -15 -16 -16 -16 -16 -16 -16 -16 -17 -17 -18 -19 -20 -21 -22 -22 -23 -23 -24 -24 -24 -25 -25 -25 -25 -25 -25 -25 -24 -24 -24 -23 -23 -23 -22 -21 -20 -19 -18 -19 -18
-15 -15 -15 -15 -16 -16 -16 -16 -16 -16 -16 -17 -18 -18 -19 -20 -21 -22 -23 -23 -24 -24 -24 -25 -25 -25 -25 -24 -25 -24 -24 -24 -24 -23 -23 -22 -23 -22 -21 -21 -19 -18 -19
-14 -15 -15 -15 -16 -16 -16 -16 -16 -16 -16 -16 -17 -18 -18 -19 -21 -22 -22 -23 -23 -24 -24 -24 -25 -25 -25 -25 -24 -24 -24 -24 -24 -24 -24 -23 -22 -22 -21 -20 -20 -20 -20
-14 -15 -15 -15 -16 -16 -16 -16 -16 -16 -16 -16 -16 -17 -18 -19 -20 -21 -22 -22 -23 -23 -24 -24 -25 -25 -25 -25 -24 -24 -24 -24 -24 -24 -24 -23 -22 -22 -23 -22 -21 -20 -20
-14 -14 -15 -15 -15 -16 -16 -16 -16 -16 -16 -16 -16 -16 -18 -19 -20 -21 -22 -22 -22 -23 -23 -24 -24 -25 -25 -25 -25 -24 -24 -24 -24 -24 -24 -24 -24 -22 -22 -22 -22 -22 -22
-14 -14 -14 -15 -15 -16 -16 -16 -16 -16 -16 -16 -15 -16 -17 -18 -19 -20 -21 -21 -22 -23 -23 -24 -24 -24 -25 -25 -25 -25 -25 -24 -24 -24 -24 -24 -24 -24 -23 -22 -22 -22 -23
-14 -14 -14 -14 -15 -15 -16 -16 -16 -16 -16 -16 -16 -16 -16 -17 -19 -20 -21 -21 -22 -22 -23 -23 -24 -24 -24 -25 -25 -24 -24 -25 -25 -25 -24 -24 -24 -24 -24 -24 -23 -22 -22
-13 -14 -14 -14 -15 -15 -15 -15 -16 -16 -16 -16 -16 -16 -16 -16 -17 -19 -20 -21 -21 -22 -23 -23 -23 -24 -24 -24 -24 -24 -24 -24 -24 -24 -25 -25 -24 -24 -24 -24 -24 -23 -22
-13 -14 -14 -14 -15 -15 -15 -15 -15 -16 -16 -16 -16 -16 -16 -16 -16 -18 -20 -21 -21 -21 -22 -23 -23 -23 -23 -24 -24 -24 -24 -24 -24 -24 -24 -24 -24 -24 -24 -24 -24 -23 -23
-13 -13 -14 -14 -14 -15 -15 -15 -15 -16 -16 -16 -16 -16 -16 -16 -16 -17 -18 -20 -21 -22 -22 -22 -23 -23 -23 -24 -24 -24 -24 -24 -24 -24 -24 -24 -24 -24 -24 -24 -24 -23 -23
Height
5757 5753 5750 5746 5742 5737 5732 5728 5724 5721 5719 5716 5715 5712 5710 5707 5705 5703 5700 5698 5697 5697 5697 5698 5701 5704 5708 5715 5720 5727 5737 5745 5753 5761 5769 5779 5787 5793 5800 5807 5814 5820 5826
5756 5752 5748 5744 5739 5735 5730 5724 5718 5714 5710 5707 5704 5701 5698 5695 5692 5689 5686 5682 5681 5679 5678 5679 5681 5684 5688 5693 5699 5705 5712 5722 5732 5740 5750 5759 5769 5776 5783 5791 5800 5807 5813
5756 5752 5748 5743 5738 5733 5727 5722 5716 5711 5705 5700 5696 5691 5686 5680 5676 5672 5667 5664 5662 5661 5659 5657 5658 5664 5669 5673 5676 5682 5689 5697 5708 5719 5728 5739 5748 5759 5766 5775 5785 5794 5801
5757 5752 5747 5742 5737 5732 5726 5720 5715 5710 5703 5697 5690 5683 5677 5670 5662 5653 5648 5646 5643 5641 5638 5638 5639 5642 5644 5649 5654 5659 5666 5674 5683 5694 5705 5717 5728 5739 5749 5758 5767 5778 5786
5756 5751 5746 5740 5734 5729 5723 5716 5710 5704 5697 5689 5682 5674 5665 5657 5649 5639 5632 5626 5623 5621 5618 5618 5619 5620 5622 5623 5628 5634 5642 5651 5659 5668 5680 5693 5706 5718 5729 5739 5750 5760 5770
5755 5750 5744 5737 5732 5725 5718 5711 5704 5698 5690 5682 5673 5664 5654 5642 5633 5625 5616 5610 5605 5602 5598 5597 5597 5598 5598 5599 5603 5609 5616 5625 5635 5644 5655 5669 5682 5696 5709 5721 5731 5743 5754
5754 5747 5741 5734 5728 5721 5713 5705 5697 5689 5681 5673 5665 5650 5636 5625 5615 5607 5600 5593 5589 5585 5581 5579 5578 5577 5578 5580 5580 5584 5587 5596 5608 5619 5630 5643 5658 5673 5687 5701 5712 5724 5736
5750 5743 5737 5730 5723 5715 5707 5699 5690 5679 5669 5659 5651 5642 5632 5615 5596 5586 5580 5576 5574 5569 5566 5565 5562 5559 5558 5561 5562 5561 5563 5569 5578 5592 5606 5617 5632 5648 5665 5677 5690 5702 5717
5748 5741 5734 5726 5719 5711 5702 5693 5683 5673 5662 5648 5632 5618 5609 5600 5594 5575 5566 5561 5559 5555 5553 5552 5547 5545 5544 5542 5539 5539 5542 5545 5553 5566 5582 5599 5616 5631 5645 5655 5668 5682 5698
5745 5738 5730 5722 5714 5705 5696 5685 5675 5664 5651 5637 5619 5603 5588 5577 5571 5570 5556 5550 5547 5544 5541 5540 5535 5532 5527 5524 5523 5523 5526 5529 5538 5550 5559 5577 5595 5612 5625 5637 5648 5662 5678
5742 5735 5727 5718 5710 5701 5691 5679 5668 5654 5639 5622 5605 5590 5578 5567 5558 5555 5550 5542 5538 5537 5534 5530 5526 5521 5517 5516 5517 5516 5519 5522 5529 5545 5543 5560 5576 5590 5603 5617 5631 5646 5658
5739 5731 5723 5714 5705 5695 5685 5672 5660 5646 5628 5609 5591 5577 5568 5561 5553 5548 5543 5538 5533 5529 5527 5522 5518 5514 5511 5512 5512 5514 5518 5522 5523 5531 5534 5544 5558 5569 5592 5600 5620 5632 5641
5735 5728 5719 5710 5701 5691 5679 5667 5654 5638 5618 5599 5582 5570 5561 5554 5549 5543 5538 5533 5530 5526 5522 5518 5513 5509 5508 5509 5510 5513 5518 5523 5525 5527 5533 5545 5557 5567 5583 5598 5603 5618 5627
5732 5724 5716 5707 5697 5687 5675 5663 5647 5631 5611 5592 5577 5567 5558 5552 5547 5543 5537 5531 5526 5522 5519 5514 5510 5507 5507 5506 5508 5510 5518 5522 5518 5521 5529 5541 5545 5561 5573 5587 5597 5605 5614
5729 5721 5712 5703 5694 5684 5672 5659 5644 5627 5609 5592 5577 5566 5558 5552 5547 5542 5536 5530 5525 5520 5516 5512 5509 5507 5507 5506 5507 5509 5511 5509 5515 5518 5525 5533 5541 5551 5561 5572 5582 5587 5600
5725 5717 5708 5700 5691 5681 5670 5657 5642 5627 5609 5592 5580 5569 5561 5554 5548 5542 5535 5528 5523 5519 5514 5511 5509 5507 5507 5506 5507 5508 5509 5509 5507 5510 5521 5530 5533 5546 5553 5564 5571 5581 5591
5722 5714 5706 5698 5689 5679 5668 5655 5642 5626 5609 5594 5581 5572 5564 5556 5549 5542 5536 5529 5524 5519 5514 5511 5508 5507 5508 5508 5507 5509 5508 5506 5509 5511 5515 5521 5531 5537 5546 5557 5565 5574 5584
5720 5712 5703 5695 5686 5677 5667 5655 5642 5627 5612 5596 5582 5572 5565 5557 5550 5544 5538 5531 5525 5520 5516 5511 5508 5507 5507 5508 5508 5509 5509 5510 5510 5513 5515 5520 5526 5533 5537 5545 5555 5564 5571
5717 5709 5701 5693 5684 5675 5666 5655 5642 5628 5614 5599 5585 5575 5567 5559 5552 5546 5539 5533 5527 5520 5516 5512 5509 5506 5505 5506 5507 5507 5509 5510 5510 5512 5516 5519 5523 5529 5532 5539 5546 5553 5564
5715 5707 5699 5692 5683 5675 5666 5655 5644 5631 5617 5603 5589 5577 5568 5562 5555 5548 5542 5535 5527 5521 5516 5512 5509 5506 5504 5503 5503 5505 5506 5507 5510 5511 5513 5517 5519 5522 5528 5533 5538 5544 5551
5714 5705 5697 5690 5682 5674 5665 5655 5645 5633 5621 5607 5594 5581 5570 5564 5558 5551 5544 5537 5530 5524 5517 5512 5508 5506 5504 5502 5501 5502 5503 5503 5505 5507 5510 5513 5517 5520 5521 5523 5529 5535 5542
5713 5704 5696 5689 5681 5673 5665 5656 5647 5636 5624 5612 5599 5586 5574 5566 5559 5553 5547 5541 5534 5527 5520 5515 5510 5506 5504 5502 5501 5500 5498 5499 5501 5503 5504 5506 5511 5516 5516 5515 5521 5527 5532
5711 5704 5695 5688 5681 5673 5664 5656 5648 5638 5627 5616 5604 5592 5580 5569 5561 5556 5549 5543 5537 5531 5524 5519 5513 5509 5505 5502 5500 5499 5499 5498 5498 5499 5500 5501 5503 5506 5511 5515 5518 5519 5524
5710 5703 5695 5687 5680 5672 5664 5656 5648 5640 5630 5620 5610 5598 5587 5575 5564 5556 5551 5545 5539 5534 5528 5522 5517 5512 5508 5504 5501 5499 5498 5498 5498 5498 5498 5498 5500 5502 5504 5508 5511 5516 5521
5709 5701 5694 5686 5678 5671 5664 5656 5648 5640 5631 5623 5613 5603 5592 5581 5570 5558 5551 5546 5541 5536 5531 5525 5520 5515 5511 5507 5504 5501 5499 5498 5497 5497 5497 5498 5498 5500 5502 5504 5507 5510 5515
5707 5700 5693 5686 5678 5670 5664 5656 5649 5640 5632 5624 5616 5606 5597 5587 5576 5565 5554 5547 5541 5537 5532 5527 5522 5518 5514 5510 5507 5504 5502 5500 5499 5498 5497 5497 5497 5498 5499 5501 5503 5505 5508
Wind_Speed
22 22 22 23 24 25 28 31 34 36 39 41 41 42 43 45 48 50 52 55 56 59 60 63 67 71 76 82 87 88 87 87 85 82 81 79 77 74 73 72 69 66 63
21 21 22 22 22 24 25 24 24 25 28 32 38 43 47 50 53 55 57 59 60 61 63 64 67 69 73 77 82 90 92 90 90 89 85 83 82 80 78 76 74 71 67
25 24 24 26 27 28 27 27 26 26 26 27 28 31 36 44 51 56 58 61 63 64 66 68 70 70 72 75 79 85 92 96 94 93 92 88 86 85 83 80 77 75 71
26 25 27 28 29 28 29 29 28 28 29 29 32 34 37 40 43 49 56 59 62 63 66 69 71 73 75 76 79 83 87 93 98 98 97 95 92 89 87 84 82 78 75
29 28 31 31 32 32 33 33 33 33 34 34 35 39 43 45 45 51 50 54 57 60 62 64 67 70 72 78 82 84 87 90 95 100 102 100 98 94 91 89 87 84 79
29 30 31 31 32 33 34 34 36 37 38 40 42 45 46 50 51 53 52 49 51 53 56 57 57 58 64 71 79 86 89 92 94 98 103 104 102 99 97 92 90 87 84
30 30 30 31 33 35 36 38 39 41 41 43 43 48 54 56 57 55 52 49 47 48 49 46 47 54 61 65 71 77 87 94 97 98 101 105 106 103 101 97 94 91 87
33 33 33 34 34 37 40 42 43 46 48 49 48 48 49 51 54 54 50 46 41 43 36 37 40 45 53 62 70 75 77 87 99 102 101 104 106 107 103 101 99 96 91
35 35 36 38 39 40 43 45 47 49 51 54 57 58 55 51 43 43 43 41 34 32 29 34 39 44 50 55 60 65 71 77 90 100 102 101 100 101 100 98 101 100 95
35 36 38 40 42 43 46 49 51 54 56 58 59 57 54 51 43 31 34 34 29 25 26 31 36 41 40 40 41 43 48 57 67 81 96 101 98 94 93 92 94 99 97
37 38 39 41 43 44 47 51 55 59 62 63 59 52 48 44 39 33 27 28 25 20 24 27 31 28 24 20 16 19 17 34 44 32 59 78 92 92 92 88 84 85 90
38 40 41 43 45 46 49 54 58 63 67 65 57 50 45 37 31 25 25 21 21 21 20 23 24 17 12 9 3 20 16 8 23 41 33 56 64 78 83 74 79 72 70
40 41 41 43 45 46 50 56 61 67 70 65 55 46 39 32 25 22 25 22 19 19 20 19 17 10 11 15 24 18 11 6 22 22 32 29 51 62 73 66 54 69 68
41 42 42 44 45 46 51 56 63 69 71 64 52 39 31 27 23 21 25 21 20 17 17 17 12 4 20 26 25 11 21 9 10 31 38 46 44 48 58 63 66 70 69
42 43 41 43 44 46 51 56 63 69 71 59 44 33 28 24 19 23 25 22 18 20 14 16 9 2 27 29 25 20 21 23 14 26 34 46 49 42 49 62 65 53 64
43 42 41 42 43 46 50 55 63 68 68 58 42 31 26 22 20 25 25 24 18 20 11 12 7 3 29 29 26 19 23 23 21 22 39 45 50 46 43 51 58 61 63
42 41 41 41 42 45 48 54 61 68 69 60 42 31 25 22 22 25 26 25 19 19 15 10 8 3 23 24 21 29 29 21 19 23 36 41 47 47 40 42 43 57 64
42 40 39 38 39 43 45 52 59 66 70 61 46 31 25 23 24 25 26 26 22 19 18 12 8 4 9 29 28 26 32 30 19 18 21 43 50 48 58 46 49 42 42
40 39 38 37 38 41 44 48 55 63 68 64 54 39 28 26 26 26 27 27 25 22 17 14 10 6 1 10 22 34 28 27 27 27 24 24 38 46 53 51 54 52 50
39 39 37 36 36 39 42 44 51 58 64 66 61 49 34 28 29 28 26 26 27 25 21 16 12 9 4 1 8 17 29 39 33 33 34 35 33 36 41 52 56 47 45
38 38 37 36 35 37 40 41 47 53 59 63 64 57 42 29 30 30 28 28 26 26 25 21 15 10 9 4 2 5 13 18 28 39 37 34 38 46 48 46 51 54 58
37 38 37 36 34 36 38 39 42 48 53 58 59 61 51 37 29 30 30 29 27 27 27 26 22 15 8 5 5 4 4 8 16 18 18 31 48 44 49 55 52 51 46
37 37 36 36 34 35 36 37 38 43 48 52 54 56 58 48 34 29 29 29 27 25 25 26 26 25 18 10 7 3 4 2 6 9 14 18 19 22 38 53 59 61 59
37 35 36 35 34 32 33 36 36 39 43 47 51 53 55 54 46 31 27 27 26 25 23 23 22 23 23 21 16 10 6 2 2 2 6 9 14 17 20 23 28 38 51
37 36 35 34 34 31 31 33 35 35 38 41 46 50 53 51 52 45 31 27 25 23 22 21 20 19 20 20 19 17 15 10 7 4 2 2 5 7 12 17 22 24 28
35 36 35 34 33 31 30 29 33 33 34 38 41 45 49 49 51 50 44 31 26 25 21 19 18 17 17 16 16 16 15 13 12 10 8 4 2 3 4 8 13 18 23
Wind_Direction
340 342 346 344 337 328 317 306 297 291 288 285 283 280 279 276 272 269 268 266 264 260 257 256 253 250 246 241 240 239 239 240 240 238 237 235 234 233 232 234 235 236 235
22 17 9 3 357 357 358 352 340 325 310 299 291 287 283 279 275 272 269 265 263 261 261 258 254 252 250 247 241 238 237 235 237 238 237 236 234 233 232 232 233 235 235
16 13 11 6 4 3 1 355 349 345 342 335 324 313 300 288 280 274 270 266 262 259 259 259 258 255 251 248 246 241 238 235 233 235 236 235 235 234 233 233 232 233 234
14 12 8 5 2 1 358 354 350 347 339 330 326 322 316 308 300 287 274 268 263 260 259 258 257 256 255 250 246 243 240 237 234 231 233 234 233 233 233 233 232 232 232
5 3 360 357 353 350 348 344 340 338 334 330 324 322 319 312 304 300 291 275 268 263 261 260 259 258 256 251 247 243 240 238 236 233 229 230 232 232 232 232 232 231 231
359 356 354 352 349 345 343 339 334 331 327 325 322 320 313 304 299 297 298 287 276 271 266 263 264 263 257 252 249 244 240 237 235 235 232 228 229 230 231 230 231 232 231
356 355 351 349 348 344 340 336 332 328 324 321 317 311 305 303 300 299 300 292 280 278 275 274 271 265 259 257 254 250 243 237 234 232 233 229 227 227 229 229 230 231 230
353 350 347 343 343 343 340 336 332 327 324 321 317 312 302 305 308 304 299 293 284 281 273 278 274 268 263 260 257 256 253 243 235 231 230 231 227 226 226 227 228 229 229
348 345 343 340 341 340 339 337 332 331 328 325 321 315 310 304 301 302 299 297 289 281 274 282 279 275 274 271 265 260 257 251 240 232 229 230 230 228 227 227 226 227 228
345 344 344 341 341 340 339 336 334 335 332 329 322 319 313 313 310 305 310 301 296 287 289 291 287 287 280 273 270 266 259 252 245 239 232 227 227 229 229 228 228 227 226
345 346 345 342 343 342 341 338 339 338 336 332 328 321 318 321 322 323 319 313 302 294 300 302 299 288 283 271 265 272 264 254 240 231 239 231 225 225 227 228 228 228 227
346 346 346 344 345 346 343 342 343 343 341 338 334 328 330 332 329 332 331 319 305 302 307 309 304 295 286 176 98 131 109 125 222 209 221 219 218 223 222 227 228 224 224
345 346 347 346 348 347 345 346 347 349 347 347 345 341 341 343 343 341 338 329 320 314 315 319 308 300 179 162 146 120 63 237 214 229 200 198 208 204 220 210 213 223 224
345 347 348 348 350 349 348 351 351 355 353 355 358 358 353 352 352 351 348 342 330 326 319 326 321 306 172 164 151 116 123 176 118 222 201 184 183 203 215 216 226 227 226
346 349 348 349 352 351 352 355 355 360 358 1 5 8 6 3 3 360 355 352 342 338 330 338 337 231 176 177 165 162 160 143 164 207 206 199 202 214 208 206 206 214 220
347 350 349 350 353 352 356 358 359 3 3 4 6 11 14 11 8 6 2 0 1 356 350 343 347 147 183 195 200 191 172 159 150 198 212 200 210 203 210 210 217 215 219
347 350 350 352 354 354 359 1 3 6 6 6 6 8 13 12 8 8 7 7 5 5 8 2 4 113 193 199 195 198 201 170 164 196 213 212 205 205 202 197 208 222 219
348 350 351 354 354 356 1 3 5 8 10 8 5 3 6 6 5 9 8 8 6 1 6 9 8 4 180 209 205 196 199 214 185 191 205 219 222 210 221 222 203 200 210
349 350 351 355 355 357 2 5 7 9 10 11 9 2 359 0 2 6 10 10 10 10 1 3 5 1 348 201 221 227 208 207 208 215 197 211 227 233 220 207 209 220 224
351 351 351 355 355 358 2 5 8 10 10 12 12 9 359 1 358 2 9 12 13 13 15 6 359 5 335 300 202 222 240 237 230 208 217 228 229 235 239 237 224 210 206
352 353 352 355 355 358 1 5 9 9 12 11 12 13 9 360 0 1 8 14 14 13 15 20 15 2 11 343 304 219 219 230 228 232 232 232 238 233 238 241 243 247 241
353 354 353 354 357 358 0 4 9 11 12 13 12 13 14 8 0 1 8 14 17 15 16 19 26 24 12 8 11 265 252 228 221 224 230 239 242 241 239 241 241 243 243
354 355 355 354 357 357 359 3 7 12 12 13 13 13 14 14 6 359 4 12 18 19 20 20 26 33 31 13 348 339 243 270 250 239 231 229 228 226 236 238 240 240 243
353 355 354 355 356 356 358 1 4 9 12 14 14 15 17 15 14 4 358 2 10 16 21 23 27 32 37 36 32 25 17 336 342 257 241 241 234 231 229 232 237 238 238
352 353 355 354 355 356 357 359 3 6 9 12 14 13 16 18 18 14 4 355 355 4 13 20 22 28 34 38 41 41 39 31 12 358 333 293 257 237 230 232 230 229 231
349 351 353 354 353 353 357 357 1 3 6 8 11 12 13 13 19 19 14 5 352 350 358 5 17 22 25 37 43 45 49 50 49 45 38 20 317 264 246 244 241 237 233